Year,Month,Day,Hour,Minute,Value (Times are PST for temperature in C)
2015,07,24,00,00,17.10
2015,07,24,00,01,17.00
2015,07,24,00,02,17.00
2015,07,24,00,03,16.90
2015,07,24,00,04,16.90
2015,07,24,00,05,16.90
2015,07,24,00,06,16.80
2015,07,24,00,07,16.80
2015,07,24,00,08,16.80
2015,07,24,00,09,16.80
2015,07,24,00,10,16.70
2015,07,24,00,11,16.60
2015,07,24,00,12,16.50
2015,07,24,00,13,16.40
2015,07,24,00,14,16.30
2015,07,24,00,15,16.30
2015,07,24,00,16,16.20
2015,07,24,00,17,16.20
2015,07,24,00,18,16.20
2015,07,24,00,19,16.20
2015,07,24,00,20,16.30
2015,07,24,00,21,16.30
2015,07,24,00,22,16.40
2015,07,24,00,23,16.60
2015,07,24,00,24,16.70
2015,07,24,00,25,16.90
2015,07,24,00,26,17.10
2015,07,24,00,27,17.20
2015,07,24,00,28,17.40
2015,07,24,00,29,17.40
2015,07,24,00,30,17.40
2015,07,24,00,31,17.40
2015,07,24,00,32,17.40
2015,07,24,00,33,17.40
2015,07,24,00,34,17.40
2015,07,24,00,35,17.50
2015,07,24,00,36,17.50
2015,07,24,00,37,17.50
2015,07,24,00,38,17.50
2015,07,24,00,39,17.50
2015,07,24,00,40,17.50
2015,07,24,00,41,17.40
2015,07,24,00,42,17.30
2015,07,24,00,43,17.30
2015,07,24,00,44,17.30
2015,07,24,00,45,17.30
2015,07,24,00,46,17.30
2015,07,24,00,47,17.30
2015,07,24,00,48,17.40
2015,07,24,00,49,17.40
2015,07,24,00,50,17.40
2015,07,24,00,51,17.40
2015,07,24,00,52,17.40
2015,07,24,00,53,17.30
2015,07,24,00,54,17.30
2015,07,24,00,55,17.30
2015,07,24,00,56,17.30
2015,07,24,00,57,17.30
2015,07,24,00,58,17.40
2015,07,24,00,59,17.40
2015,07,24,01,00,17.40
2015,07,24,01,01,17.40
2015,07,24,01,02,17.30
2015,07,24,01,03,17.30
2015,07,24,01,04,17.30
2015,07,24,01,05,17.20
2015,07,24,01,06,17.10
2015,07,24,01,07,17.00
2015,07,24,01,08,16.90
2015,07,24,01,09,16.90
2015,07,24,01,10,16.80
2015,07,24,01,11,16.80
2015,07,24,01,12,16.80
2015,07,24,01,13,16.70
2015,07,24,01,14,16.70
2015,07,24,01,15,16.70
2015,07,24,01,16,16.70
2015,07,24,01,17,16.70
2015,07,24,01,18,16.70
2015,07,24,01,19,16.70
2015,07,24,01,20,16.70
2015,07,24,01,21,16.70
2015,07,24,01,22,16.70
2015,07,24,01,23,16.70
2015,07,24,01,24,16.60
2015,07,24,01,25,16.60
2015,07,24,01,26,16.60
2015,07,24,01,27,16.60
2015,07,24,01,28,16.60
2015,07,24,01,29,16.70
2015,07,24,01,30,16.70
2015,07,24,01,31,16.70
2015,07,24,01,32,16.60
2015,07,24,01,33,16.60
2015,07,24,01,34,16.60
2015,07,24,01,35,16.60
2015,07,24,01,36,16.60
2015,07,24,01,37,16.60
2015,07,24,01,38,16.60
2015,07,24,01,39,16.60
2015,07,24,01,40,16.50
2015,07,24,01,41,16.50
2015,07,24,01,42,16.50
2015,07,24,01,43,16.50
2015,07,24,01,44,16.50
2015,07,24,01,45,16.40
2015,07,24,01,46,16.40
2015,07,24,01,47,16.40
2015,07,24,01,48,16.30
2015,07,24,01,49,16.30
2015,07,24,01,50,16.30
2015,07,24,01,51,16.30
2015,07,24,01,52,16.20
2015,07,24,01,53,16.20
2015,07,24,01,54,16.20
2015,07,24,01,55,16.20
2015,07,24,01,56,16.10
2015,07,24,01,57,16.10
2015,07,24,01,58,16.10
2015,07,24,01,59,16.10
2015,07,24,02,00,16.10
2015,07,24,02,01,16.00
2015,07,24,02,02,16.00
2015,07,24,02,03,15.90
2015,07,24,02,04,15.90
2015,07,24,02,05,15.90
2015,07,24,02,06,15.80
2015,07,24,02,07,15.80
2015,07,24,02,08,15.80
2015,07,24,02,09,15.80
2015,07,24,02,10,15.80
2015,07,24,02,11,15.80
2015,07,24,02,12,15.80
2015,07,24,02,13,15.80
2015,07,24,02,14,15.70
2015,07,24,02,15,15.80
2015,07,24,02,16,15.80
2015,07,24,02,17,15.80
2015,07,24,02,18,15.90
2015,07,24,02,19,15.90
2015,07,24,02,20,15.90
2015,07,24,02,21,16.00
2015,07,24,02,22,16.00
2015,07,24,02,23,16.00
2015,07,24,02,24,16.00
2015,07,24,02,25,16.00
2015,07,24,02,26,16.00
2015,07,24,02,27,16.00
2015,07,24,02,28,16.10
2015,07,24,02,29,16.10
2015,07,24,02,30,16.10
2015,07,24,02,31,16.10
2015,07,24,02,32,16.10
2015,07,24,02,33,16.20
2015,07,24,02,34,16.20
2015,07,24,02,35,16.20
2015,07,24,02,36,16.20
2015,07,24,02,37,16.20
2015,07,24,02,38,16.10
2015,07,24,02,39,16.10
2015,07,24,02,40,16.10
2015,07,24,02,41,16.10
2015,07,24,02,42,16.10
2015,07,24,02,43,16.10
2015,07,24,02,44,16.10
2015,07,24,02,45,16.00
2015,07,24,02,46,16.00
2015,07,24,02,47,16.00
2015,07,24,02,48,15.90
2015,07,24,02,49,15.90
2015,07,24,02,50,15.90
2015,07,24,02,51,15.90
2015,07,24,02,52,15.90
2015,07,24,02,53,15.90
2015,07,24,02,54,15.90
2015,07,24,02,55,15.90
2015,07,24,02,56,15.90
2015,07,24,02,57,15.90
2015,07,24,02,58,15.90
2015,07,24,02,59,15.90
2015,07,24,03,00,15.80
2015,07,24,03,01,15.80
2015,07,24,03,02,15.80
2015,07,24,03,06,15.80
2015,07,24,03,07,15.80
2015,07,24,03,08,15.80
2015,07,24,03,09,15.80
2015,07,24,03,10,15.80
2015,07,24,03,11,15.80
2015,07,24,03,12,15.70
2015,07,24,03,13,15.70
2015,07,24,03,14,15.70
2015,07,24,03,15,15.70
2015,07,24,03,16,15.70
2015,07,24,03,17,15.70
2015,07,24,03,18,15.60
2015,07,24,03,19,15.60
2015,07,24,03,20,15.60
2015,07,24,03,21,15.60
2015,07,24,03,22,15.60
2015,07,24,03,23,15.50
2015,07,24,03,24,15.50
2015,07,24,03,25,15.50
2015,07,24,03,26,15.50
2015,07,24,03,27,15.40
2015,07,24,03,28,15.40
2015,07,24,03,29,15.40
2015,07,24,03,30,15.40
2015,07,24,03,31,15.40
2015,07,24,03,32,15.40
2015,07,24,03,33,15.40
2015,07,24,03,34,15.40
2015,07,24,03,35,15.40
2015,07,24,03,36,15.40
2015,07,24,03,37,15.40
2015,07,24,03,38,15.40
2015,07,24,06,44,14.70
2015,07,24,06,45,14.70
2015,07,24,06,46,14.70
2015,07,24,06,47,14.70
2015,07,24,06,48,14.70
2015,07,24,06,49,14.70
2015,07,24,06,50,14.70
2015,07,24,06,51,14.70
2015,07,24,06,52,14.70
2015,07,24,06,53,14.70
2015,07,24,06,54,14.70
2015,07,24,06,55,14.70
2015,07,24,06,56,14.70
2015,07,24,06,57,14.70
2015,07,24,06,58,14.80
2015,07,24,06,59,14.80
2015,07,24,07,00,14.80
2015,07,24,07,01,14.80
2015,07,24,07,02,14.80
2015,07,24,07,03,14.70
2015,07,24,07,04,14.70
2015,07,24,07,05,14.70
2015,07,24,07,06,14.70
2015,07,24,07,07,14.70
2015,07,24,07,08,14.70
2015,07,24,07,09,14.70
2015,07,24,07,10,14.70
2015,07,24,07,11,14.70
2015,07,24,07,12,14.70
2015,07,24,07,13,14.70
2015,07,24,07,14,14.60
2015,07,24,07,15,14.60
2015,07,24,07,16,14.60
2015,07,24,07,17,14.60
2015,07,24,07,18,14.60
2015,07,24,07,19,14.60
2015,07,24,07,20,14.50
2015,07,24,07,21,14.50
2015,07,24,07,22,14.50
2015,07,24,07,23,14.40
2015,07,24,07,24,14.40
2015,07,24,07,25,14.40
2015,07,24,07,26,14.40
2015,07,24,07,27,14.40
2015,07,24,07,28,14.30
2015,07,24,07,29,14.30
2015,07,24,07,30,14.30
2015,07,24,07,31,14.30
2015,07,24,07,32,14.20
2015,07,24,07,33,14.20
2015,07,24,07,34,14.20
2015,07,24,07,35,14.10
2015,07,24,07,36,14.10
2015,07,24,07,37,14.10
2015,07,24,07,38,14.10
2015,07,24,07,39,14.10
2015,07,24,07,40,14.00
2015,07,24,07,41,14.00
2015,07,24,07,42,14.00
2015,07,24,07,43,13.90
2015,07,24,07,44,13.90
2015,07,24,07,45,13.90
2015,07,24,07,46,13.90
2015,07,24,07,47,13.90
2015,07,24,07,48,13.90
2015,07,24,07,49,13.80
2015,07,24,07,50,13.80
2015,07,24,07,51,13.80
2015,07,24,07,52,13.80
2015,07,24,07,53,13.80
2015,07,24,07,54,13.80
2015,07,24,07,55,13.80
2015,07,24,07,56,13.80
2015,07,24,07,57,13.80
2015,07,24,07,58,13.80
2015,07,24,07,59,13.80
2015,07,24,08,00,13.80
2015,07,24,08,01,13.80
2015,07,24,08,02,13.80
2015,07,24,08,03,13.80
2015,07,24,08,04,13.80
2015,07,24,08,05,13.80
2015,07,24,08,06,13.80
2015,07,24,08,07,13.80
2015,07,24,08,08,13.80
2015,07,24,08,09,13.80
2015,07,24,08,10,13.80
2015,07,24,08,11,13.80
2015,07,24,08,12,13.80
2015,07,24,08,13,13.80
2015,07,24,08,14,13.80
2015,07,24,08,15,13.80
2015,07,24,08,16,13.80
2015,07,24,08,17,13.80
2015,07,24,08,18,13.80
2015,07,24,08,19,13.80
2015,07,24,08,20,13.70
2015,07,24,08,21,13.70
2015,07,24,08,22,13.70
2015,07,24,08,23,13.70
2015,07,24,08,24,13.70
2015,07,24,08,25,13.70
2015,07,24,08,26,13.70
2015,07,24,08,27,13.70
2015,07,24,08,28,13.80
2015,07,24,08,29,13.80
2015,07,24,08,30,13.80
2015,07,24,08,31,13.80
2015,07,24,08,32,13.80
2015,07,24,08,33,13.80
2015,07,24,08,34,13.80
2015,07,24,08,35,13.80
2015,07,24,08,36,13.80
2015,07,24,08,37,13.80
2015,07,24,08,38,13.80
2015,07,24,08,39,13.80
2015,07,24,08,40,13.80
2015,07,24,08,41,13.80
2015,07,24,08,42,13.80
2015,07,24,08,43,13.80
2015,07,24,08,44,13.80
2015,07,24,08,45,13.90
2015,07,24,08,46,13.90
2015,07,24,08,47,13.90
2015,07,24,08,48,13.90
2015,07,24,08,49,13.90
2015,07,24,08,50,14.00
2015,07,24,08,51,14.00
2015,07,24,08,52,14.00
2015,07,24,08,53,14.00
2015,07,24,08,54,14.10
2015,07,24,08,55,14.10
2015,07,24,08,56,14.10
2015,07,24,08,57,14.10
2015,07,24,08,58,14.10
2015,07,24,08,59,14.10
2015,07,24,09,00,14.10
2015,07,24,09,01,14.10
2015,07,24,09,02,14.20
2015,07,24,09,03,14.20
2015,07,24,09,04,14.20
2015,07,24,09,05,14.20
2015,07,24,09,06,14.20
2015,07,24,09,07,14.20
2015,07,24,09,08,14.20
2015,07,24,09,09,14.20
2015,07,24,09,10,14.20
2015,07,24,09,11,14.20
2015,07,24,09,12,14.20
2015,07,24,09,13,14.30
2015,07,24,09,14,14.20
2015,07,24,09,15,14.30
2015,07,24,09,16,14.30
2015,07,24,09,17,14.30
2015,07,24,09,18,14.30
2015,07,24,09,19,14.30
2015,07,24,09,20,14.30
2015,07,24,09,21,14.30
2015,07,24,09,22,14.40
2015,07,24,09,23,14.40
2015,07,24,09,24,14.40
2015,07,24,09,25,14.40
2015,07,24,09,26,14.40
2015,07,24,09,27,14.40
2015,07,24,09,28,14.40
2015,07,24,09,29,14.40
2015,07,24,09,30,14.40
2015,07,24,09,31,14.40
2015,07,24,09,32,14.40
2015,07,24,09,33,14.40
2015,07,24,09,34,14.40
2015,07,24,09,35,14.50
2015,07,24,09,36,14.50
2015,07,24,09,37,14.50
2015,07,24,09,38,14.50
2015,07,24,09,39,14.50
2015,07,24,09,40,14.50
2015,07,24,09,41,14.50
2015,07,24,09,42,14.50
2015,07,24,09,43,14.50
2015,07,24,09,44,14.50
2015,07,24,09,45,14.50
2015,07,24,09,46,14.60
2015,07,24,09,47,14.50
2015,07,24,09,48,14.50
2015,07,24,09,49,14.50
2015,07,24,09,50,14.50
2015,07,24,09,51,14.60
2015,07,24,09,52,14.60
2015,07,24,09,53,14.60
2015,07,24,09,54,14.60
2015,07,24,09,55,14.60
2015,07,24,09,56,14.60
2015,07,24,09,57,14.60
2015,07,24,09,58,14.60
2015,07,24,09,59,14.60
2015,07,24,10,00,14.60
2015,07,24,10,01,14.60
2015,07,24,10,02,14.60
2015,07,24,10,03,14.60
2015,07,24,10,04,14.60
2015,07,24,10,05,14.60
2015,07,24,10,06,14.60
2015,07,24,10,07,14.60
2015,07,24,10,08,14.60
2015,07,24,10,09,14.60
2015,07,24,10,10,14.60
2015,07,24,10,11,14.60
2015,07,24,10,12,14.60
2015,07,24,10,13,14.60
2015,07,24,10,14,14.60
2015,07,24,10,15,14.60
2015,07,24,10,16,14.60
2015,07,24,10,17,14.60
2015,07,24,10,18,14.60
2015,07,24,10,19,14.60
2015,07,24,10,20,14.60
2015,07,24,10,21,14.60
2015,07,24,10,22,14.60
2015,07,24,10,23,14.60
2015,07,24,10,24,14.60
2015,07,24,10,25,14.60
2015,07,24,10,26,14.60
2015,07,24,10,27,14.60
2015,07,24,10,28,14.60
2015,07,24,10,29,14.60
2015,07,24,10,30,14.60
2015,07,24,10,31,14.60
2015,07,24,10,32,14.60
2015,07,24,10,33,14.70
2015,07,24,10,34,14.70
2015,07,24,10,35,14.70
2015,07,24,10,36,14.80
2015,07,24,10,37,14.80
2015,07,24,10,38,14.80
2015,07,24,10,39,14.80
2015,07,24,10,40,14.80
2015,07,24,10,41,14.80
2015,07,24,10,42,14.80
2015,07,24,10,43,14.80
2015,07,24,10,44,14.80
2015,07,24,10,45,14.80
2015,07,24,10,46,14.80
2015,07,24,10,47,14.80
2015,07,24,10,48,14.80
2015,07,24,10,49,14.90
2015,07,24,10,50,14.90
2015,07,24,10,51,14.90
2015,07,24,10,52,14.90
2015,07,24,10,53,14.90
2015,07,24,10,54,14.90
2015,07,24,10,55,14.90
2015,07,24,10,56,14.90
2015,07,24,10,57,14.90
2015,07,24,10,58,14.90
2015,07,24,10,59,14.90
2015,07,24,11,00,14.90
2015,07,24,11,01,14.90
2015,07,24,11,02,14.90
2015,07,24,11,03,14.90
2015,07,24,11,04,14.90
2015,07,24,11,05,14.90
2015,07,24,11,06,14.90
2015,07,24,11,07,14.90
2015,07,24,11,08,14.90
2015,07,24,11,09,14.90
2015,07,24,11,10,14.90
2015,07,24,11,11,15.00
2015,07,24,11,12,15.00
2015,07,24,11,13,15.10
2015,07,24,11,14,15.10
2015,07,24,11,15,15.10
2015,07,24,11,16,15.10
2015,07,24,11,17,15.10
2015,07,24,11,18,15.10
2015,07,24,11,19,15.10
2015,07,24,11,20,15.10
2015,07,24,11,21,15.20
2015,07,24,11,22,15.20
2015,07,24,11,23,15.20
2015,07,24,11,24,15.20
2015,07,24,11,25,15.10
2015,07,24,11,26,15.10
2015,07,24,11,27,15.10
2015,07,24,11,28,15.10
2015,07,24,11,29,15.10
2015,07,24,11,30,15.10
2015,07,24,11,31,15.10
2015,07,24,11,32,15.10
2015,07,24,11,33,15.10
2015,07,24,11,34,15.10
2015,07,24,11,35,15.10
2015,07,24,11,36,15.00
2015,07,24,11,37,14.90
2015,07,24,11,38,14.90
2015,07,24,11,39,14.90
2015,07,24,11,40,14.90
2015,07,24,11,41,14.90
2015,07,24,11,42,15.00
2015,07,24,11,43,15.00
2015,07,24,11,44,15.10
2015,07,24,11,45,15.10
2015,07,24,11,46,15.10
2015,07,24,11,47,15.00
2015,07,24,11,48,15.00
2015,07,24,11,49,14.90
2015,07,24,11,50,14.90
2015,07,24,11,51,14.80
2015,07,24,11,52,14.80
2015,07,24,11,53,14.80
2015,07,24,11,54,14.80
2015,07,24,11,55,14.80
2015,07,24,11,56,14.80
2015,07,24,11,57,14.80
2015,07,24,11,58,14.80
2015,07,24,11,59,14.80
2015,07,24,12,00,14.80
2015,07,24,12,01,14.80
2015,07,24,12,02,14.80
2015,07,24,12,03,14.80
2015,07,24,12,04,14.80
2015,07,24,12,05,14.70
2015,07,24,12,06,14.70
2015,07,24,12,07,14.70
2015,07,24,12,08,14.70
2015,07,24,12,09,14.70
2015,07,24,12,10,14.70
2015,07,24,12,11,14.70
2015,07,24,12,12,14.60
2015,07,24,12,13,14.60
2015,07,24,12,14,14.50
2015,07,24,12,15,14.50
2015,07,24,12,16,14.50
2015,07,24,12,17,14.40
2015,07,24,12,18,14.50
2015,07,24,12,19,14.50
2015,07,24,12,20,14.50
2015,07,24,12,21,14.40
2015,07,24,12,22,14.40
2015,07,24,12,23,14.40
2015,07,24,12,24,14.40
2015,07,24,12,25,14.40
2015,07,24,12,26,14.40
2015,07,24,12,27,14.40
2015,07,24,12,28,14.50
2015,07,24,12,29,14.50
2015,07,24,12,30,14.50
2015,07,24,12,31,14.60
2015,07,24,12,32,14.60
2015,07,24,12,33,14.60
2015,07,24,12,34,14.60
2015,07,24,12,35,14.60
2015,07,24,12,36,14.70
2015,07,24,12,37,14.70
2015,07,24,12,38,14.70
2015,07,24,12,39,14.70
2015,07,24,12,40,14.70
2015,07,24,12,41,14.70
2015,07,24,12,42,14.70
2015,07,24,12,43,14.70
2015,07,24,12,44,14.70
2015,07,24,12,45,14.60
2015,07,24,12,46,14.60
2015,07,24,12,47,14.60
2015,07,24,12,48,14.60
2015,07,24,12,49,14.60
2015,07,24,12,50,14.60
2015,07,24,12,51,14.60
2015,07,24,12,52,14.60
2015,07,24,12,53,14.60
2015,07,24,12,54,14.70
2015,07,24,12,55,14.70
2015,07,24,12,56,14.70
2015,07,24,12,57,14.70
2015,07,24,12,58,14.70
2015,07,24,12,59,14.70
2015,07,24,13,00,14.70
2015,07,24,13,01,14.70
2015,07,24,13,02,14.70
2015,07,24,13,03,14.60
2015,07,24,13,04,14.60
2015,07,24,13,05,14.60
2015,07,24,13,06,14.60
2015,07,24,13,07,14.60
2015,07,24,13,08,14.60
2015,07,24,13,09,14.60
2015,07,24,13,10,14.60
2015,07,24,13,11,14.60
2015,07,24,13,12,14.60
2015,07,24,13,13,14.50
2015,07,24,13,14,14.50
2015,07,24,13,15,14.50
2015,07,24,13,16,14.50
2015,07,24,13,17,14.50
2015,07,24,13,18,14.50
2015,07,24,13,19,14.50
2015,07,24,13,20,14.50
2015,07,24,13,21,14.50
2015,07,24,13,22,14.50
2015,07,24,13,23,14.60
2015,07,24,13,24,14.60
2015,07,24,13,25,14.60
2015,07,24,13,26,14.60
2015,07,24,13,27,14.60
2015,07,24,13,28,14.60
2015,07,24,13,29,14.60
2015,07,24,13,30,14.60
2015,07,24,13,31,14.70
2015,07,24,13,32,14.70
2015,07,24,13,33,14.80
2015,07,24,13,34,14.80
2015,07,24,13,35,14.80
2015,07,24,13,36,14.80
2015,07,24,13,37,14.90
2015,07,24,13,38,14.90
2015,07,24,13,39,14.90
2015,07,24,13,40,14.90
2015,07,24,13,41,15.00
2015,07,24,13,42,15.00
2015,07,24,13,43,15.10
2015,07,24,13,44,15.10
2015,07,24,13,45,15.10
2015,07,24,13,46,15.10
2015,07,24,13,47,15.10
2015,07,24,13,48,15.10
2015,07,24,13,49,15.10
2015,07,24,13,50,15.10
2015,07,24,13,51,15.20
2015,07,24,13,52,15.20
2015,07,24,13,53,15.20
2015,07,24,13,54,15.20
2015,07,24,13,55,15.20
2015,07,24,13,56,15.20
2015,07,24,13,57,15.20
2015,07,24,13,58,15.20
2015,07,24,13,59,15.30
2015,07,24,14,00,15.30
2015,07,24,14,01,15.30
2015,07,24,14,02,15.40
2015,07,24,14,03,15.40
2015,07,24,14,04,15.30
2015,07,24,14,05,15.20
2015,07,24,14,06,15.20
2015,07,24,14,07,15.20
2015,07,24,14,08,15.20
2015,07,24,14,09,15.20
2015,07,24,14,10,15.20
2015,07,24,14,11,15.20
2015,07,24,14,12,15.20
2015,07,24,14,13,15.30
2015,07,24,14,14,15.30
2015,07,24,14,15,15.40
2015,07,24,14,16,15.40
2015,07,24,14,17,15.50
2015,07,24,14,18,15.50
2015,07,24,14,19,15.60
2015,07,24,14,20,15.70
2015,07,24,14,21,15.70
2015,07,24,14,22,15.70
2015,07,24,14,23,15.70
2015,07,24,14,24,15.70
2015,07,24,14,25,15.80
2015,07,24,14,26,15.80
2015,07,24,14,27,15.90
2015,07,24,14,28,15.90
2015,07,24,14,29,15.90
2015,07,24,14,30,16.00
2015,07,24,14,31,16.00
2015,07,24,14,32,16.10
2015,07,24,14,33,16.10
2015,07,24,14,34,16.10
2015,07,24,14,35,16.10
2015,07,24,14,36,16.10
2015,07,24,14,37,16.20
2015,07,24,14,38,16.20
2015,07,24,14,39,16.30
2015,07,24,14,40,16.30
2015,07,24,14,41,16.30
2015,07,24,14,42,16.30
2015,07,24,14,43,16.40
2015,07,24,14,44,16.40
2015,07,24,14,45,16.40
2015,07,24,14,46,16.50
2015,07,24,14,47,16.50
2015,07,24,14,48,16.50
2015,07,24,14,49,16.40
2015,07,24,14,50,16.40
2015,07,24,14,51,16.40
2015,07,24,14,52,16.30
2015,07,24,14,53,16.40
2015,07,24,14,54,16.40
2015,07,24,14,55,16.30
2015,07,24,14,56,16.30
2015,07,24,14,57,16.30
2015,07,24,14,58,16.30
2015,07,24,14,59,16.20
2015,07,24,15,00,16.10
2015,07,24,15,01,16.10
2015,07,24,15,02,16.10
2015,07,24,15,03,16.10
2015,07,24,15,04,16.10
2015,07,24,15,05,16.10
2015,07,24,15,06,16.10
2015,07,24,15,07,16.20
2015,07,24,15,08,16.20
2015,07,24,15,09,16.20
2015,07,24,15,10,16.20
2015,07,24,15,11,16.20
2015,07,24,15,12,16.20
2015,07,24,15,13,16.20
2015,07,24,15,14,16.20
2015,07,24,15,15,16.20
2015,07,24,15,16,16.20
2015,07,24,15,17,16.10
2015,07,24,15,18,16.10
2015,07,24,15,19,16.10
2015,07,24,15,20,16.00
2015,07,24,15,21,16.00
2015,07,24,15,22,15.90
2015,07,24,15,23,15.90
2015,07,24,15,24,15.90
2015,07,24,15,25,15.90
2015,07,24,15,26,15.90
2015,07,24,15,27,15.90
2015,07,24,15,28,16.00
2015,07,24,15,29,16.00
2015,07,24,15,30,16.10
2015,07,24,15,31,16.10
2015,07,24,15,32,16.10
2015,07,24,15,33,16.20
2015,07,24,15,34,16.20
2015,07,24,15,35,16.20
2015,07,24,15,36,16.20
2015,07,24,15,37,16.20
2015,07,24,15,38,16.20
2015,07,24,15,39,16.20
2015,07,24,15,40,16.20
2015,07,24,15,41,16.30
2015,07,24,15,42,16.30
2015,07,24,15,43,16.30
2015,07,24,15,44,16.30
2015,07,24,15,45,16.30
2015,07,24,15,46,16.30
2015,07,24,15,47,16.30
2015,07,24,15,48,16.30
2015,07,24,15,49,16.30
2015,07,24,15,50,16.30
2015,07,24,15,51,16.30
2015,07,24,15,52,16.30
2015,07,24,15,53,16.30
2015,07,24,15,54,16.30
2015,07,24,15,55,16.30
2015,07,24,15,56,16.40
2015,07,24,15,57,16.40
2015,07,24,15,58,16.40
2015,07,24,15,59,16.50
2015,07,24,16,00,16.50
2015,07,24,16,01,16.50
2015,07,24,16,02,16.50
2015,07,24,16,03,16.40
2015,07,24,16,04,16.40
2015,07,24,16,05,16.30
2015,07,24,16,06,16.30
2015,07,24,16,07,16.30
2015,07,24,16,08,16.30
2015,07,24,16,09,16.30
2015,07,24,16,10,16.40
2015,07,24,16,11,16.40
2015,07,24,16,12,16.40
2015,07,24,16,13,16.40
2015,07,24,16,14,16.40
2015,07,24,16,15,16.40
2015,07,24,16,16,16.50
2015,07,24,16,17,16.50
2015,07,24,16,18,16.60
2015,07,24,16,19,16.60
2015,07,24,16,20,16.60
2015,07,24,16,21,16.60
2015,07,24,16,22,16.70
2015,07,24,16,23,16.70
2015,07,24,16,24,16.60
2015,07,24,16,25,16.60
2015,07,24,16,26,16.60
2015,07,24,16,27,16.50
2015,07,24,16,28,16.50
2015,07,24,16,29,16.50
2015,07,24,16,30,16.50
2015,07,24,16,31,16.50
2015,07,24,16,32,16.40
2015,07,24,16,33,16.40
2015,07,24,16,34,16.50
2015,07,24,16,35,16.50
2015,07,24,16,36,16.40
2015,07,24,16,37,16.50
2015,07,24,16,38,16.50
2015,07,24,16,39,16.50
2015,07,24,16,40,16.50
2015,07,24,16,41,16.50
2015,07,24,16,42,16.50
2015,07,24,16,43,16.40
2015,07,24,16,44,16.40
2015,07,24,16,45,16.40
2015,07,24,16,46,16.40
2015,07,24,16,47,16.40
2015,07,24,16,48,16.30
2015,07,24,16,49,16.30
2015,07,24,16,50,16.30
2015,07,24,16,51,16.30
2015,07,24,16,52,16.30
2015,07,24,16,53,16.20
2015,07,24,16,54,16.20
2015,07,24,16,55,16.20
2015,07,24,16,56,16.20
2015,07,24,16,57,16.20
2015,07,24,16,58,16.10
2015,07,24,16,59,16.20
2015,07,24,17,00,16.20
2015,07,24,17,01,16.20
2015,07,24,17,02,16.20
2015,07,24,17,03,16.20
2015,07,24,17,04,16.20
2015,07,24,17,05,16.20
2015,07,24,17,06,16.10
2015,07,24,17,07,16.10
2015,07,24,17,08,16.10
2015,07,24,17,09,16.00
2015,07,24,17,10,16.00
2015,07,24,17,11,15.90
2015,07,24,17,12,15.90
2015,07,24,17,13,15.90
2015,07,24,17,14,16.00
2015,07,24,17,15,16.00
2015,07,24,17,16,16.10
2015,07,24,17,17,16.10
2015,07,24,17,18,16.10
2015,07,24,17,19,16.10
2015,07,24,17,20,16.10
2015,07,24,17,21,16.10
2015,07,24,17,22,16.00
2015,07,24,17,23,16.00
2015,07,24,17,24,16.00
2015,07,24,17,25,16.00
2015,07,24,17,26,16.00
2015,07,24,17,27,16.10
2015,07,24,17,28,16.10
2015,07,24,17,29,16.10
2015,07,24,17,30,16.10
2015,07,24,17,31,16.10
2015,07,24,17,32,16.00
2015,07,24,17,33,16.00
2015,07,24,17,34,16.00
2015,07,24,17,35,16.00
2015,07,24,17,36,16.00
2015,07,24,17,37,16.00
2015,07,24,17,38,16.00
2015,07,24,17,39,16.00
2015,07,24,17,40,15.90
2015,07,24,17,41,15.90
2015,07,24,17,42,15.90
2015,07,24,17,43,15.90
2015,07,24,17,44,15.90
2015,07,24,17,45,15.90
2015,07,24,17,46,15.90
2015,07,24,17,47,15.90
2015,07,24,17,48,15.80
2015,07,24,17,49,15.80
2015,07,24,17,50,15.80
2015,07,24,17,51,15.80
2015,07,24,17,52,15.80
2015,07,24,17,53,15.80
2015,07,24,17,54,15.80
2015,07,24,17,55,15.80
2015,07,24,17,56,15.80
2015,07,24,17,57,15.80
2015,07,24,17,58,15.80
2015,07,24,17,59,15.80
2015,07,24,18,00,15.80
2015,07,24,18,01,15.80
2015,07,24,18,02,15.70
2015,07,24,18,03,15.70
2015,07,24,18,04,15.80
2015,07,24,18,05,15.80
2015,07,24,18,06,15.80
2015,07,24,18,07,15.80
2015,07,24,18,08,15.80
2015,07,24,18,09,15.80
2015,07,24,18,10,15.80
2015,07,24,18,11,15.90
2015,07,24,18,12,15.90
2015,07,24,18,13,16.00
2015,07,24,18,14,16.00
2015,07,24,18,15,16.00
2015,07,24,18,16,16.00
2015,07,24,18,17,16.10
2015,07,24,18,18,16.10
2015,07,24,18,19,16.10
2015,07,24,18,20,16.10
2015,07,24,18,21,16.10
2015,07,24,18,22,16.10
2015,07,24,18,23,16.10
2015,07,24,18,24,16.10
2015,07,24,18,25,16.10
2015,07,24,18,26,16.10
2015,07,24,18,27,16.10
2015,07,24,18,28,16.10
2015,07,24,18,29,16.10
2015,07,24,18,30,16.00
2015,07,24,18,31,16.00
2015,07,24,18,32,16.00
2015,07,24,18,33,15.90
2015,07,24,18,34,15.90
2015,07,24,18,35,15.90
2015,07,24,18,36,15.90
2015,07,24,18,37,15.90
2015,07,24,18,38,15.90
2015,07,24,18,39,15.90
2015,07,24,18,40,15.90
2015,07,24,18,41,16.00
2015,07,24,18,42,16.00
2015,07,24,18,43,16.00
2015,07,24,18,44,15.90
2015,07,24,18,45,15.90
2015,07,24,18,46,16.00
2015,07,24,18,47,16.00
2015,07,24,18,48,16.10
2015,07,24,18,49,16.10
2015,07,24,18,50,16.10
2015,07,24,18,51,16.10
2015,07,24,18,52,16.10
2015,07,24,18,53,16.10
2015,07,24,18,54,16.10
2015,07,24,18,55,16.10
2015,07,24,18,56,16.20
2015,07,24,18,57,16.10
2015,07,24,18,58,16.10
2015,07,24,18,59,16.10
2015,07,24,19,00,16.10
2015,07,24,19,01,16.10
2015,07,24,19,02,16.00
2015,07,24,19,03,16.00
2015,07,24,19,04,16.00
2015,07,24,19,05,16.00
2015,07,24,19,06,15.90
2015,07,24,19,07,15.90
2015,07,24,19,08,15.90
2015,07,24,19,09,15.90
2015,07,24,19,10,15.90
2015,07,24,19,11,15.90
2015,07,24,19,12,15.90
2015,07,24,19,13,15.80
2015,07,24,19,14,15.80
2015,07,24,19,15,15.80
2015,07,24,19,16,15.80
2015,07,24,19,17,15.80
2015,07,24,19,18,15.80
2015,07,24,19,19,15.70
2015,07,24,19,20,15.70
2015,07,24,19,21,15.70
2015,07,24,19,22,15.70
2015,07,24,19,23,15.70
2015,07,24,19,24,15.60
2015,07,24,19,25,15.60
2015,07,24,19,26,15.60
2015,07,24,19,27,15.60
2015,07,24,19,28,15.50
2015,07,24,19,29,15.50
2015,07,24,19,30,15.50
2015,07,24,19,31,15.40
2015,07,24,19,32,15.40
2015,07,24,19,33,15.40
2015,07,24,19,34,15.40
2015,07,24,19,35,15.40
2015,07,24,19,36,15.40
2015,07,24,19,37,15.30
2015,07,24,19,38,15.30
2015,07,24,19,39,15.30
2015,07,24,19,40,15.30
2015,07,24,19,41,15.30
2015,07,24,19,42,15.30
2015,07,24,19,43,15.20
2015,07,24,19,44,15.20
2015,07,24,19,45,15.20
2015,07,24,19,46,15.20
2015,07,24,19,47,15.20
2015,07,24,19,48,15.20
2015,07,24,19,49,15.20
2015,07,24,19,50,15.20
2015,07,24,19,51,15.20
2015,07,24,19,52,15.20
2015,07,24,19,53,15.20
2015,07,24,19,54,15.20
2015,07,24,19,55,15.20
2015,07,24,19,56,15.10
2015,07,24,19,57,15.10
2015,07,24,19,58,15.10
2015,07,24,19,59,15.10
2015,07,24,20,00,15.10
2015,07,24,20,01,15.10
2015,07,24,20,02,15.10
2015,07,24,20,03,15.10
2015,07,24,20,04,15.10
2015,07,24,20,05,15.10
2015,07,24,20,06,15.10
2015,07,24,20,07,15.10
2015,07,24,20,08,15.10
2015,07,24,20,09,15.10
2015,07,24,20,10,15.10
2015,07,24,20,11,15.00
2015,07,24,20,12,15.00
2015,07,24,20,13,15.00
2015,07,24,20,14,15.00
2015,07,24,20,15,14.90
2015,07,24,20,16,14.90
2015,07,24,20,17,14.90
2015,07,24,20,18,14.90
2015,07,24,20,19,14.90
2015,07,24,20,20,14.90
2015,07,24,20,21,14.90
2015,07,24,20,22,14.90
2015,07,24,20,23,14.90
2015,07,24,20,24,14.90
2015,07,24,20,25,14.90
2015,07,24,20,26,14.90
2015,07,24,20,27,14.90